STARLINK-37121, 68383

Orbit data source: Space-Track

STARLINK-37121, 68383 is a payload satellite owned by SpaceX/Seattle (US) in SSO that was launched on Thu, 26 Mar 2026 UTC via an FALCON 9 launch vehicle from the Air Force Western Test Range (AFWTR). Payload-class satellites include a variety of spacecraft equipped with specific instruments for various scientific and technological missions. These include communications satellites like Starlink; space stations such as the ISS; scientific satellites like the Hubble; Earth observation satellites from companies like Planet Labs, Umbra, and HawkEye 360; GPS; miniature CubeSats for education and research; and military/defense satellites.

Loading next visibility...
Identifier
68383, 2026-063D
Orbit
SSO
Country
Flag of USUS
Related business
Manufacturer
SpaceX/Seattle
Mission
Operational spacecraft
Bus & Motor
STARLINK V2MO, Unknown motor
Mass
575 kg wet, ~530 kg dry
Launch date (UTC)
2026-03-26 (2 weeks ago)
Launch vehicle
FALCON 9
Launch site
Air Force Western Test Range (AFWTR)
Object type
Payload
Rocket body
Debris
Shape & HBR
Unknown shape, 17.7 m
Radar Cross Section
RCS unknown

Expand to show TLE details & history
Last TLE update: 5 hours ago

TLE from 5 hours ago
0 STARLINK-37121
1 68383U 26063D   26102.31923150  .00170989  00000-0  87414-3 0  9991
2 68383  97.2836 243.7304 0001237 103.1021 257.0386 15.80863642  2937
Epoch: 2026-04-12T07:39Z
TLE epoch observation values (Epoch: 2026-04-12T07:39:41.601Z)
Latitude
0.00003°
Longitude
-71.71883°
Altitude
331.359 km
Speed
7.71 km/s
True Right ascension
16h 14m 55s
True Declination
0° 00' 00"
Sunlit
Object was in full shadow at epoch
Visualization orbit readout
Latitude
Unknown
Longitude
Unknown
Altitude
Unknown
Speed
Unknown
Apparent Right ascension
Unknown
Apparent Declination
Unknown
Sunlit
N/A
Visualization observer readout
Local Sidereal Time
19:23:23
Azimuth
Unknown
Elevation
Unknown
Doppler factor
Unknown
Orbital elements
Apogee altitude
325.706 km
Perigee altitude
324.048 km
Semi-major axis
6,703.014 km
Eccentricity
0.00012
Inclination
97.2836°
RAAN
243.7304°
Arg. of periapsis
103.1021°
True anomaly
257.02479°
Mean anomaly
257.0386°
Eccentric anomaly
257.03169°
Mean motion
3.95492 °/min
Orbital period
91.03 mins
BSTAR
0.00087414
Loading maneuver chart data...
Computing Atmospheric mass density...
Loading historical data...
Loading historical data...
Loading historical data...
Loading historical data...
Loading historical data...
Loading historical data...
Loading historical data...

Documentation

Showing up to 5 results
|